Time,TemperatureF,DewpointF,PressureIn,WindDirection,WindDirectionDegrees,WindSpeedMPH,WindSpeedGustMPH,Humidity,HourlyPrecipIn,Conditions,Clouds,dailyrainin,SolarRadiationWatts/m^2,SoftwareType,DateUTC
2013-04-07 00:00:00,24.0,14.3,29.86,WSW,249,0.0,0.0,66,0.00,,,0.00,0,WeatherCatV1.11B39,2013-04-07 04:00:00,
2013-04-07 00:01:00,24.0,14.3,29.86,WSW,249,0.0,0.0,66,0.00,,,0.00,0,WeatherCatV1.11B39,2013-04-07 04:01:00,
2013-04-07 00:05:00,23.9,14.2,29.86,WSW,249,0.0,0.0,66,0.00,,,0.00,0,WeatherCatV1.11B39,2013-04-07 04:05:00,
2013-04-07 00:09:00,23.8,15.5,29.85,WSW,249,0.0,0.0,70,0.00,,,0.00,0,WeatherCatV1.11B39,2013-04-07 04:09:00,
2013-04-07 00:14:00,23.7,16.0,29.85,WSW,249,0.0,0.0,72,0.00,,,0.00,0,WeatherCatV1.11B39,2013-04-07 04:14:00,
2013-04-07 00:16:00,23.6,15.3,29.85,WSW,249,0.0,0.0,70,0.00,,,0.00,0,WeatherCatV1.11B39,2013-04-07 04:16:00,
2013-04-07 00:19:00,23.5,14.5,29.85,WSW,249,0.0,0.0,68,0.00,,,0.00,0,WeatherCatV1.11B39,2013-04-07 04:19:00,
2013-04-07 00:24:00,23.4,14.4,29.85,WSW,249,0.0,0.0,68,0.00,,,0.00,0,WeatherCatV1.11B39,2013-04-07 04:24:00,
2013-04-07 00:26:00,23.4,14.4,29.85,WSW,249,0.0,0.0,68,0.00,,,0.00,0,WeatherCatV1.11B39,2013-04-07 04:26:00,
2013-04-07 00:31:00,23.3,14.0,29.85,WSW,249,0.0,0.0,67,0.00,,,0.00,0,WeatherCatV1.11B39,2013-04-07 04:31:00,
2013-04-07 00:34:00,23.3,14.0,29.85,WSW,249,0.0,0.0,67,0.00,,,0.00,0,WeatherCatV1.11B39,2013-04-07 04:34:00,
2013-04-07 00:36:00,23.3,14.0,29.86,WSW,249,0.0,0.0,67,0.00,,,0.00,0,WeatherCatV1.11B39,2013-04-07 04:36:00,
2013-04-07 00:39:00,23.3,14.0,29.86,WSW,249,0.0,0.0,67,0.00,,,0.00,0,WeatherCatV1.11B39,2013-04-07 04:39:00,
2013-04-07 00:41:00,23.3,14.3,29.86,WSW,249,0.0,0.0,68,0.00,,,0.00,0,WeatherCatV1.11B39,2013-04-07 04:41:00,
2013-04-07 00:44:00,23.2,13.9,29.85,WSW,249,0.0,0.0,67,0.00,,,0.00,0,WeatherCatV1.11B39,2013-04-07 04:44:00,
2013-04-07 00:46:00,23.2,14.2,29.85,WSW,249,0.0,0.0,68,0.00,,,0.00,0,WeatherCatV1.11B39,2013-04-07 04:46:00,
2013-04-07 00:50:00,23.3,14.0,29.85,WSW,249,0.0,0.0,67,0.00,,,0.00,0,WeatherCatV1.11B39,2013-04-07 04:50:00,
2013-04-07 00:51:00,23.3,14.0,29.85,WSW,249,0.0,0.0,67,0.00,,,0.00,0,WeatherCatV1.11B39,2013-04-07 04:51:00,
2013-04-07 00:54:00,23.3,14.3,29.85,WSW,249,0.0,0.0,68,0.00,,,0.00,0,WeatherCatV1.11B39,2013-04-07 04:54:00,
2013-04-07 00:59:00,23.3,14.3,29.85,WSW,249,0.0,0.0,68,0.00,,,0.00,0,WeatherCatV1.11B39,2013-04-07 04:59:00,
2013-04-07 01:01:00,23.3,14.3,29.86,WSW,249,0.0,0.0,68,0.00,,,0.00,0,WeatherCatV1.11B39,2013-04-07 05:01:00,
2013-04-07 01:04:00,23.4,14.4,29.85,WSW,249,0.0,0.0,68,0.00,,,0.00,0,WeatherCatV1.11B39,2013-04-07 05:04:00,
2013-04-07 01:06:00,23.4,14.8,29.85,WSW,249,0.0,0.0,69,0.00,,,0.00,0,WeatherCatV1.11B39,2013-04-07 05:06:00,
2013-04-07 01:11:00,23.5,14.9,29.85,WSW,249,0.0,0.0,69,0.00,,,0.00,0,WeatherCatV1.11B39,2013-04-07 05:11:00,
2013-04-07 01:16:00,23.5,14.9,29.85,WSW,249,0.0,0.0,69,0.00,,,0.00,0,WeatherCatV1.11B39,2013-04-07 05:16:00,
2013-04-07 01:19:00,23.6,15.3,29.85,WSW,249,0.0,0.0,70,0.00,,,0.00,0,WeatherCatV1.11B39,2013-04-07 05:19:00,
2013-04-07 01:21:00,23.6,15.6,29.85,WSW,249,0.0,0.0,71,0.00,,,0.00,0,WeatherCatV1.11B39,2013-04-07 05:21:00,
2013-04-07 01:26:00,23.8,16.4,29.85,WSW,249,0.0,0.0,73,0.00,,,0.00,0,WeatherCatV1.11B39,2013-04-07 05:26:00,
2013-04-07 01:29:00,23.8,16.1,29.85,WSW,249,0.0,0.0,72,0.00,,,0.00,0,WeatherCatV1.11B39,2013-04-07 05:29:00,
2013-04-07 01:34:00,23.9,15.9,29.85,WSW,249,0.0,0.0,71,0.00,,,0.00,0,WeatherCatV1.11B39,2013-04-07 05:34:00,
2013-04-07 01:36:00,23.9,15.9,29.85,WSW,249,0.0,0.0,71,0.00,,,0.00,0,WeatherCatV1.11B39,2013-04-07 05:36:00,
2013-04-07 01:38:00,24.0,16.3,29.85,WSW,249,0.0,0.0,72,0.00,,,0.00,0,WeatherCatV1.11B39,2013-04-07 05:38:00,
2013-04-07 01:43:00,24.1,16.1,29.85,WSW,249,0.0,0.0,71,0.00,,,0.00,0,WeatherCatV1.11B39,2013-04-07 05:43:00,
2013-04-07 01:48:00,24.3,16.6,29.85,WSW,249,0.0,0.0,72,0.00,,,0.00,0,WeatherCatV1.11B39,2013-04-07 05:48:00,
2013-04-07 01:53:00,24.3,15.9,29.85,WSW,249,0.0,0.0,70,0.00,,,0.00,0,WeatherCatV1.11B39,2013-04-07 05:53:00,
2013-04-07 01:56:00,24.4,16.0,29.85,WSW,249,0.0,0.0,70,0.00,,,0.00,0,WeatherCatV1.11B39,2013-04-07 05:56:00,
2013-04-07 01:59:00,24.5,16.5,29.85,WSW,249,0.0,0.0,71,0.00,,,0.00,0,WeatherCatV1.11B39,2013-04-07 05:59:00,
2013-04-07 02:04:00,24.7,16.0,29.85,WSW,249,0.0,0.0,69,0.00,,,0.00,0,WeatherCatV1.11B39,2013-04-07 06:04:00,
2013-04-07 02:09:00,24.7,16.0,29.85,WSW,249,0.0,0.0,69,0.00,,,0.00,0,WeatherCatV1.11B39,2013-04-07 06:09:00,
2013-04-07 02:11:00,24.8,16.1,29.84,WSW,249,0.0,0.0,69,0.00,,,0.00,0,WeatherCatV1.11B39,2013-04-07 06:11:00,
2013-04-07 02:14:00,24.8,16.1,29.84,WSW,249,0.0,0.0,69,0.00,,,0.00,0,WeatherCatV1.11B39,2013-04-07 06:14:00,
2013-04-07 02:16:00,24.9,15.9,29.84,WSW,249,0.0,0.0,68,0.00,,,0.00,0,WeatherCatV1.11B39,2013-04-07 06:16:00,
2013-04-07 02:19:00,24.9,16.2,29.84,WSW,249,0.0,0.0,69,0.00,,,0.00,0,WeatherCatV1.11B39,2013-04-07 06:19:00,
2013-04-07 02:21:00,25.0,16.3,29.84,WSW,249,0.0,0.0,69,0.00,,,0.00,0,WeatherCatV1.11B39,2013-04-07 06:21:00,
2013-04-07 02:24:00,25.0,16.3,29.84,WSW,249,0.0,0.0,69,0.00,,,0.00,0,WeatherCatV1.11B39,2013-04-07 06:24:00,
2013-04-07 02:29:00,25.1,16.0,29.83,WSW,249,0.0,0.0,68,0.00,,,0.00,0,WeatherCatV1.11B39,2013-04-07 06:29:00,
2013-04-07 02:34:00,25.2,16.1,29.83,WSW,249,0.0,0.0,68,0.00,,,0.00,0,WeatherCatV1.11B39,2013-04-07 06:34:00,
2013-04-07 02:36:00,25.2,16.1,29.83,WSW,249,0.0,0.0,68,0.00,,,0.00,0,WeatherCatV1.11B39,2013-04-07 06:36:00,
2013-04-07 02:39:00,25.3,16.2,29.84,WSW,249,0.0,0.0,68,0.00,,,0.00,0,WeatherCatV1.11B39,2013-04-07 06:39:00,
2013-04-07 02:44:00,25.3,16.9,29.84,WSW,249,0.0,0.0,70,0.00,,,0.00,0,WeatherCatV1.11B39,2013-04-07 06:44:00,
2013-04-07 02:46:00,25.4,17.3,29.84,WSW,249,0.0,0.0,71,0.00,,,0.00,0,WeatherCatV1.11B39,2013-04-07 06:46:00,
2013-04-07 02:49:00,25.5,17.8,29.84,WSW,249,0.0,0.0,72,0.00,,,0.00,0,WeatherCatV1.11B39,2013-04-07 06:49:00,
2013-04-07 02:51:00,25.5,17.8,29.84,WSW,249,0.0,0.0,72,0.00,,,0.00,0,WeatherCatV1.11B39,2013-04-07 06:51:00,
2013-04-07 02:54:00,25.5,18.1,29.84,WSW,249,0.0,0.0,73,0.00,,,0.00,0,WeatherCatV1.11B39,2013-04-07 06:54:00,
2013-04-07 02:56:00,25.6,18.2,29.83,WSW,249,0.0,0.0,73,0.00,,,0.00,0,WeatherCatV1.11B39,2013-04-07 06:56:00,
2013-04-07 02:59:00,25.7,18.3,29.83,WSW,249,0.0,0.0,73,0.00,,,0.00,0,WeatherCatV1.11B39,2013-04-07 06:59:00,
2013-04-07 03:04:00,25.7,17.9,29.83,WSW,249,0.0,0.0,72,0.00,,,0.00,0,WeatherCatV1.11B39,2013-04-07 07:04:00,
2013-04-07 03:09:00,25.8,18.0,29.83,WSW,249,0.0,0.0,72,0.00,,,0.00,0,WeatherCatV1.11B39,2013-04-07 07:09:00,
2013-04-07 03:14:00,25.9,17.8,29.83,WSW,249,0.0,0.0,71,0.00,,,0.00,0,WeatherCatV1.11B39,2013-04-07 07:14:00,
2013-04-07 03:16:00,25.9,17.8,29.83,WSW,249,0.0,0.0,71,0.00,,,0.00,0,WeatherCatV1.11B39,2013-04-07 07:16:00,
2013-04-07 03:21:00,25.9,17.8,29.83,WSW,249,0.0,0.0,71,0.00,,,0.00,0,WeatherCatV1.11B39,2013-04-07 07:21:00,
2013-04-07 03:24:00,26.0,17.6,29.83,WSW,249,0.0,0.0,70,0.00,,,0.00,0,WeatherCatV1.11B39,2013-04-07 07:24:00,
2013-04-07 03:26:00,26.0,17.6,29.83,WSW,249,0.0,0.0,70,0.00,,,0.00,0,WeatherCatV1.11B39,2013-04-07 07:26:00,
2013-04-07 03:31:00,26.0,17.6,29.83,WSW,249,0.0,0.0,70,0.00,,,0.00,0,WeatherCatV1.11B39,2013-04-07 07:31:00,
2013-04-07 03:34:00,26.0,17.2,29.83,WSW,249,0.0,0.0,69,0.00,,,0.00,0,WeatherCatV1.11B39,2013-04-07 07:34:00,
2013-04-07 03:36:00,26.0,16.9,29.83,WSW,249,0.0,0.0,68,0.00,,,0.00,0,WeatherCatV1.11B39,2013-04-07 07:36:00,
2013-04-07 03:39:00,26.0,17.2,29.83,WSW,249,0.0,0.0,69,0.00,,,0.00,0,WeatherCatV1.11B39,2013-04-07 07:39:00,
2013-04-07 03:44:00,26.0,16.6,29.82,WSW,249,0.0,0.0,67,0.00,,,0.00,0,WeatherCatV1.11B39,2013-04-07 07:44:00,
2013-04-07 03:49:00,25.9,17.2,29.82,WSW,249,0.0,0.0,69,0.00,,,0.00,0,WeatherCatV1.11B39,2013-04-07 07:49:00,
2013-04-07 03:54:00,25.8,17.4,29.82,WSW,249,0.0,0.0,70,0.00,,,0.00,0,WeatherCatV1.11B39,2013-04-07 07:54:00,
2013-04-07 03:56:00,25.8,17.4,29.82,WSW,249,0.0,0.0,70,0.00,,,0.00,0,WeatherCatV1.11B39,2013-04-07 07:56:00,
2013-04-07 03:59:00,25.7,17.3,29.83,WSW,249,0.0,0.0,70,0.00,,,0.00,0,WeatherCatV1.11B39,2013-04-07 07:59:00,
2013-04-07 04:04:00,25.6,17.2,29.82,WSW,249,0.0,0.0,70,0.00,,,0.00,0,WeatherCatV1.11B39,2013-04-07 08:04:00,
2013-04-07 04:09:00,25.5,17.1,29.82,WSW,249,0.0,0.0,70,0.00,,,0.00,0,WeatherCatV1.11B39,2013-04-07 08:09:00,
2013-04-07 04:11:00,25.4,17.3,29.82,WSW,249,0.0,0.0,71,0.00,,,0.00,0,WeatherCatV1.11B39,2013-04-07 08:11:00,
2013-04-07 04:14:00,25.3,16.9,29.82,WSW,249,0.0,0.0,70,0.00,,,0.00,0,WeatherCatV1.11B39,2013-04-07 08:14:00,
2013-04-07 04:16:00,25.3,16.9,29.82,WSW,249,0.0,0.0,70,0.00,,,0.00,0,WeatherCatV1.11B39,2013-04-07 08:16:00,
2013-04-07 04:19:00,25.2,17.1,29.82,WSW,249,0.0,0.0,71,0.00,,,0.00,0,WeatherCatV1.11B39,2013-04-07 08:19:00,
2013-04-07 04:24:00,25.1,17.7,29.82,WSW,249,0.0,0.0,73,0.00,,,0.00,0,WeatherCatV1.11B39,2013-04-07 08:24:00,
2013-04-07 04:26:00,24.9,17.5,29.82,WSW,249,0.0,0.0,73,0.00,,,0.00,0,WeatherCatV1.11B39,2013-04-07 08:26:00,
2013-04-07 04:29:00,24.8,16.8,29.82,WSW,249,0.0,1.0,71,0.00,,,0.00,0,WeatherCatV1.11B39,2013-04-07 08:29:00,
2013-04-07 04:31:00,24.7,17.0,29.82,WSW,249,0.0,0.0,72,0.00,,,0.00,0,WeatherCatV1.11B39,2013-04-07 08:31:00,
2013-04-07 04:34:00,24.7,17.0,29.82,WSW,249,0.0,0.0,72,0.00,,,0.00,0,WeatherCatV1.11B39,2013-04-07 08:34:00,
2013-04-07 04:36:00,24.5,16.8,29.82,WSW,249,0.0,0.0,72,0.00,,,0.00,0,WeatherCatV1.11B39,2013-04-07 08:36:00,
2013-04-07 04:41:00,24.4,17.0,29.82,WSW,249,0.0,0.0,73,0.00,,,0.00,0,WeatherCatV1.11B39,2013-04-07 08:41:00,
2013-04-07 04:44:00,24.3,16.9,29.82,WSW,249,0.0,0.0,73,0.00,,,0.00,0,WeatherCatV1.11B39,2013-04-07 08:44:00,
2013-04-07 04:46:00,24.2,16.8,29.82,WSW,249,0.0,0.0,73,0.00,,,0.00,0,WeatherCatV1.11B39,2013-04-07 08:46:00,
2013-04-07 04:49:00,24.2,16.8,29.82,WSW,249,0.0,0.0,73,0.00,,,0.00,0,WeatherCatV1.11B39,2013-04-07 08:49:00,
2013-04-07 04:51:00,24.1,17.0,29.82,WSW,249,0.0,0.0,74,0.00,,,0.00,0,WeatherCatV1.11B39,2013-04-07 08:51:00,
2013-04-07 04:52:00,24.1,16.7,29.82,WSW,249,0.0,0.0,73,0.00,,,0.00,0,WeatherCatV1.11B39,2013-04-07 08:52:00,
2013-04-07 04:54:00,24.0,16.6,29.82,WSW,249,0.0,0.0,73,0.00,,,0.00,0,WeatherCatV1.11B39,2013-04-07 08:54:00,
2013-04-07 04:56:00,23.9,16.5,29.82,WSW,249,0.0,0.0,73,0.00,,,0.00,0,WeatherCatV1.11B39,2013-04-07 08:56:00,
2013-04-07 04:58:00,23.9,16.8,29.82,WSW,249,0.0,0.0,74,0.00,,,0.00,0,WeatherCatV1.11B39,2013-04-07 08:58:00,
2013-04-07 04:59:00,23.9,16.8,29.82,WSW,249,0.0,0.0,74,0.00,,,0.00,0,WeatherCatV1.11B39,2013-04-07 08:59:00,
2013-04-07 05:04:00,23.8,16.7,29.82,WSW,249,0.0,0.0,74,0.00,,,0.00,0,WeatherCatV1.11B39,2013-04-07 09:04:00,
2013-04-07 05:09:00,23.7,16.6,29.82,WSW,249,0.0,0.0,74,0.00,,,0.00,0,WeatherCatV1.11B39,2013-04-07 09:09:00,
2013-04-07 05:11:00,23.6,16.6,29.82,WSW,249,0.0,0.0,74,0.00,,,0.00,0,WeatherCatV1.11B39,2013-04-07 09:11:00,
2013-04-07 05:14:00,23.5,16.8,29.82,WSW,249,0.0,0.0,75,0.00,,,0.00,0,WeatherCatV1.11B39,2013-04-07 09:14:00,
2013-04-07 05:16:00,23.4,17.0,29.81,WSW,249,0.0,0.0,76,0.00,,,0.00,0,WeatherCatV1.11B39,2013-04-07 09:16:00,
2013-04-07 05:19:00,23.4,16.7,29.82,WSW,249,0.0,0.0,75,0.00,,,0.00,0,WeatherCatV1.11B39,2013-04-07 09:19:00,
2013-04-07 05:24:00,23.3,16.6,29.82,WSW,249,0.0,0.0,75,0.00,,,0.00,0,WeatherCatV1.11B39,2013-04-07 09:24:00,
2013-04-07 05:29:00,23.1,16.7,29.82,WSW,249,0.0,0.0,76,0.00,,,0.00,0,WeatherCatV1.11B39,2013-04-07 09:29:00,
2013-04-07 05:31:00,23.0,16.9,29.82,WSW,249,0.0,0.0,77,0.00,,,0.00,0,WeatherCatV1.11B39,2013-04-07 09:31:00,
2013-04-07 05:33:00,23.0,16.6,29.82,WSW,249,0.0,0.0,76,0.00,,,0.00,0,WeatherCatV1.11B39,2013-04-07 09:33:00,
2013-04-07 05:38:00,22.9,16.5,29.82,WSW,249,0.0,0.0,76,0.00,,,0.00,0,WeatherCatV1.11B39,2013-04-07 09:38:00,
2013-04-07 05:41:00,22.9,16.5,29.82,WSW,249,0.0,0.0,76,0.00,,,0.00,0,WeatherCatV1.11B39,2013-04-07 09:41:00,
2013-04-07 05:45:00,22.8,16.4,29.82,WSW,249,0.0,0.0,76,0.00,,,0.00,0,WeatherCatV1.11B39,2013-04-07 09:45:00,
2013-04-07 05:46:00,22.8,16.4,29.82,WSW,249,0.0,0.0,76,0.00,,,0.00,0,WeatherCatV1.11B39,2013-04-07 09:46:00,
2013-04-07 05:49:00,22.8,16.4,29.82,WSW,249,0.0,0.0,76,0.00,,,0.00,0,WeatherCatV1.11B39,2013-04-07 09:49:00,
2013-04-07 05:54:00,22.7,16.3,29.82,WSW,249,0.0,0.0,76,0.00,,,0.00,0,WeatherCatV1.11B39,2013-04-07 09:54:00,
2013-04-07 05:59:00,22.6,16.5,29.82,WSW,249,0.0,0.0,77,0.00,,,0.00,0,WeatherCatV1.11B39,2013-04-07 09:59:00,
2013-04-07 06:01:00,22.6,16.5,29.82,WSW,249,0.0,0.0,77,0.00,,,0.00,0,WeatherCatV1.11B39,2013-04-07 10:01:00,
2013-04-07 06:04:00,22.6,16.5,29.82,WSW,249,0.0,0.0,77,0.00,,,0.00,0,WeatherCatV1.11B39,2013-04-07 10:04:00,
2013-04-07 06:06:00,22.6,16.5,29.82,WSW,249,0.0,0.0,77,0.00,,,0.00,0,WeatherCatV1.11B39,2013-04-07 10:06:00,
2013-04-07 06:08:00,22.6,16.8,29.82,WSW,249,0.0,0.0,78,0.00,,,0.00,0,WeatherCatV1.11B39,2013-04-07 10:08:00,
2013-04-07 06:13:00,22.6,17.1,29.82,WSW,249,0.0,0.0,79,0.00,,,0.00,0,WeatherCatV1.11B39,2013-04-07 10:13:00,
2013-04-07 06:18:00,22.6,17.4,29.83,WSW,249,0.0,0.0,80,0.00,,,0.00,0,WeatherCatV1.11B39,2013-04-07 10:18:00,
2013-04-07 06:23:00,22.7,17.5,29.83,WSW,249,0.0,0.0,80,0.00,,,0.00,5,WeatherCatV1.11B39,2013-04-07 10:23:00,
2013-04-07 06:28:00,22.7,17.5,29.83,WSW,249,0.0,0.0,80,0.00,,,0.00,7,WeatherCatV1.11B39,2013-04-07 10:28:00,
2013-04-07 06:31:00,22.8,17.6,29.83,WSW,249,0.0,0.0,80,0.00,,,0.00,9,WeatherCatV1.11B39,2013-04-07 10:31:00,
2013-04-07 06:34:00,22.8,17.6,29.83,WSW,249,0.0,0.0,80,0.00,,,0.00,11,WeatherCatV1.11B39,2013-04-07 10:34:00,
2013-04-07 06:39:00,22.9,18.0,29.83,WSW,249,0.0,0.0,81,0.00,,,0.00,14,WeatherCatV1.11B39,2013-04-07 10:39:00,
2013-04-07 06:41:00,23.0,18.1,29.83,NNW,336,0.0,1.0,81,0.00,,,0.00,14,WeatherCatV1.11B39,2013-04-07 10:41:00,
2013-04-07 06:44:00,23.1,17.9,29.83,NNW,336,0.0,1.0,80,0.00,,,0.00,14,WeatherCatV1.11B39,2013-04-07 10:44:00,
2013-04-07 06:48:00,23.2,18.3,29.83,NNW,336,0.0,1.0,81,0.00,,,0.00,23,WeatherCatV1.11B39,2013-04-07 10:48:00,
2013-04-07 06:51:00,23.3,18.1,29.84,NNW,336,0.0,0.0,80,0.00,,,0.00,25,WeatherCatV1.11B39,2013-04-07 10:51:00,
2013-04-07 06:56:00,23.4,17.6,29.84,NNW,336,0.0,0.0,78,0.00,,,0.00,28,WeatherCatV1.11B39,2013-04-07 10:56:00,
2013-04-07 07:01:00,23.5,17.4,29.84,NNW,336,0.0,0.0,77,0.00,,,0.00,35,WeatherCatV1.11B39,2013-04-07 11:01:00,
2013-04-07 07:02:00,23.5,17.4,29.84,NNW,336,0.0,0.0,77,0.00,,,0.00,35,WeatherCatV1.11B39,2013-04-07 11:02:00,
2013-04-07 07:04:00,23.6,17.5,29.84,NNW,336,0.0,0.0,77,0.00,,,0.00,32,WeatherCatV1.11B39,2013-04-07 11:04:00,
2013-04-07 07:09:00,23.7,17.6,29.85,NNW,336,0.0,0.0,77,0.00,,,0.00,32,WeatherCatV1.11B39,2013-04-07 11:09:00,
2013-04-07 07:11:00,23.8,17.7,29.85,NNW,336,0.0,0.0,77,0.00,,,0.00,32,WeatherCatV1.11B39,2013-04-07 11:11:00,
2013-04-07 07:14:00,23.9,17.8,29.85,NNW,336,0.0,0.0,77,0.00,,,0.00,39,WeatherCatV1.11B39,2013-04-07 11:14:00,
2013-04-07 07:16:00,23.9,18.1,29.85,NNW,336,0.0,0.0,78,0.00,,,0.00,35,WeatherCatV1.11B39,2013-04-07 11:16:00,
2013-04-07 07:19:00,24.0,18.2,29.85,NNW,336,0.0,1.0,78,0.00,,,0.00,37,WeatherCatV1.11B39,2013-04-07 11:19:00,
2013-04-07 07:21:00,24.1,18.0,29.85,NNW,336,0.0,0.0,77,0.00,,,0.00,39,WeatherCatV1.11B39,2013-04-07 11:21:00,
2013-04-07 07:26:00,24.3,18.1,29.85,NNW,336,0.0,0.0,77,0.00,,,0.00,53,WeatherCatV1.11B39,2013-04-07 11:26:00,
2013-04-07 07:31:00,24.5,18.3,29.85,NNW,336,0.0,0.0,77,0.00,,,0.00,42,WeatherCatV1.11B39,2013-04-07 11:31:00,
2013-04-07 07:36:00,24.7,17.3,29.85,NNW,336,0.0,0.0,73,0.00,,,0.00,54,WeatherCatV1.11B39,2013-04-07 11:36:00,
2013-04-07 07:39:00,24.8,18.0,29.85,NNW,336,0.0,0.0,75,0.00,,,0.00,49,WeatherCatV1.11B39,2013-04-07 11:39:00,
2013-04-07 07:44:00,25.0,17.6,29.85,NNW,336,0.0,0.0,73,0.00,,,0.00,44,WeatherCatV1.11B39,2013-04-07 11:44:00,
2013-04-07 07:49:00,25.2,17.5,29.85,NNW,336,0.0,0.0,72,0.00,,,0.00,49,WeatherCatV1.11B39,2013-04-07 11:49:00,
2013-04-07 07:51:00,25.3,17.9,29.84,NNW,336,0.0,0.0,73,0.00,,,0.00,53,WeatherCatV1.11B39,2013-04-07 11:51:00,
2013-04-07 07:56:00,25.5,18.1,29.84,NNW,336,0.0,0.0,73,0.00,,,0.00,51,WeatherCatV1.11B39,2013-04-07 11:56:00,
2013-04-07 08:01:00,25.8,18.4,29.84,NNW,336,0.0,0.0,73,0.00,,,0.00,58,WeatherCatV1.11B39,2013-04-07 12:01:00,
2013-04-07 08:03:00,25.9,18.8,29.84,NNW,336,0.0,0.0,74,0.00,,,0.00,62,WeatherCatV1.11B39,2013-04-07 12:03:00,
2013-04-07 08:06:00,26.0,18.9,29.84,NNW,336,0.0,0.0,74,0.00,,,0.00,56,WeatherCatV1.11B39,2013-04-07 12:06:00,
2013-04-07 08:09:00,26.2,19.1,29.84,NNW,336,0.0,0.0,74,0.00,,,0.00,49,WeatherCatV1.11B39,2013-04-07 12:09:00,
2013-04-07 08:14:00,26.4,18.9,29.84,NNW,336,0.0,0.0,73,0.00,,,0.00,63,WeatherCatV1.11B39,2013-04-07 12:14:00,
2013-04-07 08:19:00,26.7,19.9,29.83,NNW,336,0.0,0.0,75,0.00,,,0.00,60,WeatherCatV1.11B39,2013-04-07 12:19:00,
2013-04-07 08:24:00,26.9,19.7,29.83,NNW,336,0.0,0.0,74,0.00,,,0.00,84,WeatherCatV1.11B39,2013-04-07 12:24:00,
2013-04-07 08:26:00,27.0,18.2,29.83,NNW,336,0.0,0.0,69,0.00,,,0.00,72,WeatherCatV1.11B39,2013-04-07 12:26:00,
2013-04-07 08:31:00,27.2,18.1,29.83,NNW,336,0.0,0.0,68,0.00,,,0.00,86,WeatherCatV1.11B39,2013-04-07 12:31:00,
2013-04-07 08:36:00,27.5,17.7,29.83,NNW,336,0.0,0.0,66,0.00,,,0.00,104,WeatherCatV1.11B39,2013-04-07 12:36:00,
2013-04-07 08:38:00,27.6,18.1,29.83,NNW,336,0.0,0.0,67,0.00,,,0.00,102,WeatherCatV1.11B39,2013-04-07 12:38:00,
2013-04-07 08:41:00,27.8,18.3,29.82,NNW,336,0.0,0.0,67,0.00,,,0.00,105,WeatherCatV1.11B39,2013-04-07 12:41:00,
2013-04-07 08:44:00,27.9,18.4,29.83,NNW,336,0.0,0.0,67,0.00,,,0.00,98,WeatherCatV1.11B39,2013-04-07 12:44:00,
2013-04-07 08:49:00,28.3,19.1,29.82,NNW,336,0.0,0.0,68,0.00,,,0.00,90,WeatherCatV1.11B39,2013-04-07 12:49:00,
2013-04-07 08:54:00,28.6,19.1,29.82,NNW,336,0.0,1.0,67,0.00,,,0.00,109,WeatherCatV1.11B39,2013-04-07 12:54:00,
2013-04-07 08:56:00,28.8,19.6,29.82,NNW,336,0.0,0.0,68,0.00,,,0.00,120,WeatherCatV1.11B39,2013-04-07 12:56:00,
2013-04-07 08:57:00,28.8,19.6,29.82,NNW,336,0.0,0.0,68,0.00,,,0.00,123,WeatherCatV1.11B39,2013-04-07 12:57:00,
2013-04-07 09:01:00,29.2,20.0,29.81,NNW,336,0.0,1.0,68,0.00,,,0.00,148,WeatherCatV1.11B39,2013-04-07 13:01:00,
2013-04-07 09:06:00,29.6,18.9,29.81,NNW,336,0.0,0.0,64,0.00,,,0.00,132,WeatherCatV1.11B39,2013-04-07 13:06:00,
2013-04-07 09:11:00,29.9,19.9,29.81,NNW,336,0.0,0.0,66,0.00,,,0.00,142,WeatherCatV1.11B39,2013-04-07 13:11:00,
2013-04-07 09:16:00,30.3,18.1,29.81,NNW,336,0.0,0.0,60,0.00,,,0.00,125,WeatherCatV1.11B39,2013-04-07 13:16:00,
2013-04-07 09:21:00,30.8,17.8,29.80,NNW,336,0.0,0.0,58,0.00,,,0.00,127,WeatherCatV1.11B39,2013-04-07 13:21:00,
2013-04-07 09:26:00,31.3,18.3,29.80,NNW,331,0.0,0.0,58,0.00,,,0.00,114,WeatherCatV1.11B39,2013-04-07 13:26:00,
2013-04-07 09:31:00,31.8,19.5,29.79,NNW,331,0.0,1.0,60,0.00,,,0.00,120,WeatherCatV1.11B39,2013-04-07 13:31:00,
2013-04-07 09:33:00,32.0,18.9,29.79,NNW,331,0.0,0.0,58,0.00,,,0.00,116,WeatherCatV1.11B39,2013-04-07 13:33:00,
2013-04-07 09:36:00,32.3,19.2,29.79,NNW,331,0.0,1.0,58,0.00,,,0.00,132,WeatherCatV1.11B39,2013-04-07 13:36:00,
2013-04-07 09:39:00,32.5,19.4,29.79,NNW,331,0.0,0.0,58,0.00,,,0.00,148,WeatherCatV1.11B39,2013-04-07 13:39:00,
2013-04-07 09:44:00,33.0,20.3,29.78,NNW,331,0.0,0.0,59,0.00,,,0.00,171,WeatherCatV1.11B39,2013-04-07 13:44:00,
2013-04-07 09:49:00,33.5,19.5,29.78,SSW,198,0.0,1.0,56,0.00,,,0.00,84,WeatherCatV1.11B39,2013-04-07 13:49:00,
2013-04-07 09:51:00,33.7,19.7,29.77,SSW,198,0.0,0.0,56,0.00,,,0.00,98,WeatherCatV1.11B39,2013-04-07 13:51:00,
2013-04-07 09:54:00,33.9,19.5,29.77,SSW,198,0.0,1.0,55,0.00,,,0.00,102,WeatherCatV1.11B39,2013-04-07 13:54:00,
2013-04-07 09:59:00,34.2,19.7,29.77,SSW,198,0.0,0.0,55,0.00,,,0.00,144,WeatherCatV1.11B39,2013-04-07 13:59:00,
2013-04-07 10:04:00,34.4,19.9,29.77,South,190,0.0,1.0,55,0.00,,,0.00,183,WeatherCatV1.11B39,2013-04-07 14:04:00,
2013-04-07 10:06:00,34.5,20.0,29.77,South,169,0.0,1.0,55,0.00,,,0.00,172,WeatherCatV1.11B39,2013-04-07 14:06:00,
2013-04-07 10:09:00,34.8,19.9,29.77,South,171,1.0,1.0,54,0.00,,,0.00,163,WeatherCatV1.11B39,2013-04-07 14:09:00,
2013-04-07 10:14:00,35.2,19.4,29.76,SSE,163,0.0,1.0,52,0.00,,,0.00,165,WeatherCatV1.11B39,2013-04-07 14:14:00,
2013-04-07 10:19:00,35.5,20.5,29.76,SSE,163,0.0,1.0,54,0.00,,,0.00,146,WeatherCatV1.11B39,2013-04-07 14:19:00,
2013-04-07 10:24:00,35.7,20.7,29.76,SSE,163,0.0,1.0,54,0.00,,,0.00,141,WeatherCatV1.11B39,2013-04-07 14:24:00,
2013-04-07 10:26:00,35.9,20.5,29.76,SSE,163,0.0,2.0,53,0.00,,,0.00,111,WeatherCatV1.11B39,2013-04-07 14:26:00,
2013-04-07 10:31:00,36.1,21.1,29.75,SSE,163,0.0,1.0,54,0.00,,,0.00,74,WeatherCatV1.11B39,2013-04-07 14:31:00,
2013-04-07 10:36:00,36.2,21.6,29.74,SSE,163,0.0,0.0,55,0.00,,,0.00,76,WeatherCatV1.11B39,2013-04-07 14:36:00,
2013-04-07 10:38:00,36.2,20.7,29.74,SSE,148,0.0,1.0,53,0.00,,,0.00,90,WeatherCatV1.11B39,2013-04-07 14:38:00,
2013-04-07 10:41:00,36.2,21.6,29.74,SSE,148,0.0,1.0,55,0.00,,,0.00,104,WeatherCatV1.11B39,2013-04-07 14:41:00,
2013-04-07 10:43:00,36.3,20.4,29.73,SSE,148,0.0,0.0,52,0.00,,,0.00,105,WeatherCatV1.11B39,2013-04-07 14:43:00,
2013-04-07 10:44:00,36.3,20.4,29.74,SSE,148,0.0,0.0,52,0.00,,,0.00,102,WeatherCatV1.11B39,2013-04-07 14:44:00,
2013-04-07 10:49:00,36.3,19.9,29.73,SSE,148,0.0,0.0,51,0.00,,,0.00,114,WeatherCatV1.11B39,2013-04-07 14:49:00,
2013-04-07 10:54:00,36.4,20.0,29.73,SSE,162,1.0,1.0,51,0.00,,,0.00,146,WeatherCatV1.11B39,2013-04-07 14:54:00,
2013-04-07 10:59:00,36.6,20.2,29.73,SSE,164,0.0,1.0,51,0.00,,,0.00,171,WeatherCatV1.11B39,2013-04-07 14:59:00,
2013-04-07 11:01:00,36.8,19.9,29.73,SSE,150,0.0,0.0,50,0.00,,,0.00,127,WeatherCatV1.11B39,2013-04-07 15:01:00,
2013-04-07 11:06:00,37.0,20.1,29.73,SSE,157,0.0,0.0,50,0.00,,,0.00,104,WeatherCatV1.11B39,2013-04-07 15:06:00,
2013-04-07 11:11:00,37.2,20.3,29.73,SSE,157,0.0,1.0,50,0.00,,,0.00,107,WeatherCatV1.11B39,2013-04-07 15:11:00,
2013-04-07 11:14:00,37.4,20.0,29.72,SSE,157,0.0,0.0,49,0.00,,,0.00,127,WeatherCatV1.11B39,2013-04-07 15:14:00,
2013-04-07 11:19:00,37.6,20.7,29.72,SSE,157,0.0,0.0,50,0.00,,,0.00,116,WeatherCatV1.11B39,2013-04-07 15:19:00,
2013-04-07 11:24:00,37.8,20.4,29.71,SSE,157,0.0,1.0,49,0.00,,,0.00,130,WeatherCatV1.11B39,2013-04-07 15:24:00,
2013-04-07 11:29:00,38.1,20.2,29.71,SSE,157,0.0,1.0,48,0.00,,,0.00,156,WeatherCatV1.11B39,2013-04-07 15:29:00,
2013-04-07 11:31:00,38.2,20.3,29.71,SW,234,0.0,2.0,48,0.00,,,0.00,142,WeatherCatV1.11B39,2013-04-07 15:31:00,
2013-04-07 11:34:00,38.4,20.9,29.71,SW,234,0.0,0.0,49,0.00,,,0.00,130,WeatherCatV1.11B39,2013-04-07 15:34:00,
2013-04-07 11:36:00,38.4,20.9,29.70,SW,234,0.0,0.0,49,0.00,,,0.00,123,WeatherCatV1.11B39,2013-04-07 15:36:00,
2013-04-07 11:41:00,38.7,20.7,29.70,SW,234,0.0,0.0,48,0.00,,,0.00,123,WeatherCatV1.11B39,2013-04-07 15:41:00,
2013-04-07 11:44:00,38.8,21.8,29.70,SW,234,0.0,0.0,50,0.00,,,0.00,111,WeatherCatV1.11B39,2013-04-07 15:44:00,
2013-04-07 11:49:00,39.1,21.6,29.70,SW,234,1.0,1.0,49,0.00,,,0.00,102,WeatherCatV1.11B39,2013-04-07 15:49:00,
2013-04-07 11:54:00,39.3,19.8,29.70,South,174,0.0,1.0,45,0.00,,,0.00,123,WeatherCatV1.11B39,2013-04-07 15:54:00,
2013-04-07 11:56:00,39.5,21.0,29.69,South,184,0.0,1.0,47,0.00,,,0.00,162,WeatherCatV1.11B39,2013-04-07 15:56:00,
2013-04-07 12:01:00,39.9,20.8,29.69,SSE,160,0.0,0.0,46,0.00,,,0.00,204,WeatherCatV1.11B39,2013-04-07 16:01:00,
2013-04-07 12:04:00,40.1,20.5,29.68,SSE,160,0.0,1.0,45,0.00,,,0.00,294,WeatherCatV1.11B39,2013-04-07 16:04:00,
2013-04-07 12:06:00,40.3,20.1,29.68,SSE,157,1.0,2.0,44,0.00,,,0.00,304,WeatherCatV1.11B39,2013-04-07 16:06:00,
2013-04-07 12:11:00,41.0,21.3,29.68,SW,236,0.0,1.0,45,0.00,,,0.00,292,WeatherCatV1.11B39,2013-04-07 16:11:00,
2013-04-07 12:14:00,41.3,21.0,29.67,SW,236,0.0,0.0,44,0.00,,,0.00,299,WeatherCatV1.11B39,2013-04-07 16:14:00,
2013-04-07 12:19:00,41.9,21.1,29.67,South,186,0.0,1.0,43,0.00,,,0.00,267,WeatherCatV1.11B39,2013-04-07 16:19:00,
2013-04-07 12:24:00,42.4,21.5,29.67,South,186,0.0,0.0,43,0.00,,,0.00,213,WeatherCatV1.11B39,2013-04-07 16:24:00,
2013-04-07 12:26:00,42.6,20.6,29.66,South,182,2.0,3.0,41,0.00,,,0.00,241,WeatherCatV1.11B39,2013-04-07 16:26:00,
2013-04-07 12:31:00,43.2,21.1,29.66,SE,134,0.0,1.0,41,0.00,,,0.00,343,WeatherCatV1.11B39,2013-04-07 16:31:00,
2013-04-07 12:36:00,43.7,20.4,29.65,South,171,0.0,1.0,39,0.00,,,0.00,178,WeatherCatV1.11B39,2013-04-07 16:36:00,
2013-04-07 12:41:00,44.1,21.3,29.65,SSE,153,0.0,1.0,40,0.00,,,0.00,214,WeatherCatV1.11B39,2013-04-07 16:41:00,
2013-04-07 12:46:00,44.3,19.0,29.65,SSE,158,1.0,9.0,36,0.00,,,0.00,216,WeatherCatV1.11B39,2013-04-07 16:46:00,
2013-04-07 12:51:00,44.5,19.9,29.65,South,189,0.0,1.0,37,0.00,,,0.00,267,WeatherCatV1.11B39,2013-04-07 16:51:00,
2013-04-07 12:54:00,44.7,20.7,29.65,South,188,0.0,1.0,38,0.00,,,0.00,255,WeatherCatV1.11B39,2013-04-07 16:54:00,
2013-04-07 12:59:00,45.0,20.3,29.64,SE,132,0.0,1.0,37,0.00,,,0.00,320,WeatherCatV1.11B39,2013-04-07 16:59:00,
2013-04-07 13:04:00,45.5,20.8,29.64,SSE,163,0.0,3.0,37,0.00,,,0.00,376,WeatherCatV1.11B39,2013-04-07 17:04:00,
2013-04-07 13:09:00,45.9,19.1,29.63,SSE,163,1.0,8.0,34,0.00,,,0.00,216,WeatherCatV1.11B39,2013-04-07 17:09:00,
2013-04-07 13:11:00,46.1,20.0,29.63,SSE,161,1.0,4.0,35,0.00,,,0.00,178,WeatherCatV1.11B39,2013-04-07 17:11:00,
2013-04-07 13:13:00,46.2,20.1,29.63,SSE,155,1.0,2.0,35,0.00,,,0.00,149,WeatherCatV1.11B39,2013-04-07 17:13:00,
2013-04-07 13:14:00,46.2,20.1,29.62,SSE,155,0.0,2.0,35,0.00,,,0.00,149,WeatherCatV1.11B39,2013-04-07 17:14:00,
2013-04-07 13:16:00,46.2,19.4,29.62,South,184,1.0,6.0,34,0.00,,,0.00,128,WeatherCatV1.11B39,2013-04-07 17:16:00,
2013-04-07 13:21:00,46.2,18.7,29.62,South,177,2.0,2.0,33,0.00,,,0.00,109,WeatherCatV1.11B39,2013-04-07 17:21:00,
2013-04-07 13:26:00,46.2,18.7,29.62,SSE,165,0.0,2.0,33,0.00,,,0.00,134,WeatherCatV1.11B39,2013-04-07 17:26:00,
2013-04-07 13:28:00,46.1,18.6,29.62,South,182,0.0,2.0,33,0.00,,,0.00,137,WeatherCatV1.11B39,2013-04-07 17:28:00,
2013-04-07 13:31:00,46.1,18.6,29.62,South,181,0.0,2.0,33,0.00,,,0.00,128,WeatherCatV1.11B39,2013-04-07 17:31:00,
2013-04-07 13:36:00,46.1,18.6,29.62,South,172,1.0,1.0,33,0.00,,,0.00,142,WeatherCatV1.11B39,2013-04-07 17:36:00,
2013-04-07 13:38:00,46.1,18.6,29.61,South,173,0.0,1.0,33,0.00,,,0.00,178,WeatherCatV1.11B39,2013-04-07 17:38:00,
2013-04-07 13:41:00,46.1,20.0,29.61,South,172,0.0,1.0,35,0.00,,,0.00,192,WeatherCatV1.11B39,2013-04-07 17:41:00,
2013-04-07 13:46:00,46.1,20.6,29.61,SSE,162,1.0,1.0,36,0.00,,,0.00,144,WeatherCatV1.11B39,2013-04-07 17:46:00,
2013-04-07 13:51:00,46.2,20.1,29.61,SSE,163,0.0,0.0,35,0.00,,,0.00,146,WeatherCatV1.11B39,2013-04-07 17:51:00,
2013-04-07 13:56:00,46.2,20.7,29.60,South,174,0.0,0.0,36,0.00,,,0.00,135,WeatherCatV1.11B39,2013-04-07 17:56:00,
2013-04-07 14:01:00,46.2,19.4,29.60,SSE,152,0.0,1.0,34,0.00,,,0.00,149,WeatherCatV1.11B39,2013-04-07 18:01:00,
2013-04-07 14:06:00,46.3,20.2,29.59,South,175,0.0,2.0,35,0.00,,,0.00,171,WeatherCatV1.11B39,2013-04-07 18:06:00,
2013-04-07 14:09:00,46.3,20.8,29.59,South,175,0.0,1.0,36,0.00,,,0.00,216,WeatherCatV1.11B39,2013-04-07 18:09:00,
2013-04-07 14:11:00,46.4,19.6,29.59,SSE,151,0.0,1.0,34,0.00,,,0.00,218,WeatherCatV1.11B39,2013-04-07 18:11:00,
2013-04-07 14:14:00,46.4,20.3,29.59,SSE,165,0.0,1.0,35,0.00,,,0.00,220,WeatherCatV1.11B39,2013-04-07 18:14:00,
2013-04-07 14:18:00,46.8,21.3,29.59,SE,130,2.0,2.0,36,0.00,,,0.00,193,WeatherCatV1.11B39,2013-04-07 18:18:00,
2013-04-07 14:21:00,47.0,20.8,29.59,South,173,1.0,3.0,35,0.00,,,0.00,257,WeatherCatV1.11B39,2013-04-07 18:21:00,
2013-04-07 14:26:00,47.4,21.1,29.59,South,177,0.0,2.0,35,0.00,,,0.00,617,WeatherCatV1.11B39,2013-04-07 18:26:00,
2013-04-07 14:31:00,47.8,20.1,29.58,South,182,2.0,6.0,33,0.00,,,0.00,172,WeatherCatV1.11B39,2013-04-07 18:31:00,
2013-04-07 14:36:00,48.3,19.8,29.58,SSE,158,1.0,3.0,32,0.00,,,0.00,118,WeatherCatV1.11B39,2013-04-07 18:36:00,
2013-04-07 14:41:00,48.8,21.7,29.57,South,188,1.0,3.0,34,0.00,,,0.00,102,WeatherCatV1.11B39,2013-04-07 18:41:00,
2013-04-07 14:44:00,49.0,21.9,29.57,SSE,162,0.0,1.0,34,0.00,,,0.00,139,WeatherCatV1.11B39,2013-04-07 18:44:00,
2013-04-07 14:49:00,49.3,21.4,29.56,SE,142,1.0,5.0,33,0.00,,,0.00,288,WeatherCatV1.11B39,2013-04-07 18:49:00,
2013-04-07 14:54:00,49.6,21.0,29.55,SE,146,0.0,3.0,32,0.00,,,0.00,541,WeatherCatV1.11B39,2013-04-07 18:54:00,
2013-04-07 14:56:00,49.7,21.8,29.55,SE,133,2.0,4.0,33,0.00,,,0.00,436,WeatherCatV1.11B39,2013-04-07 18:56:00,
2013-04-07 15:01:00,49.9,20.5,29.54,South,178,1.0,6.0,31,0.00,,,0.00,622,WeatherCatV1.11B39,2013-04-07 19:01:00,
2013-04-07 15:06:00,50.2,20.7,29.54,SSE,160,1.0,6.0,31,0.00,,,0.00,545,WeatherCatV1.11B39,2013-04-07 19:06:00,
2013-04-07 15:11:00,50.5,21.8,29.54,South,180,0.0,1.0,32,0.00,,,0.00,446,WeatherCatV1.11B39,2013-04-07 19:11:00,
2013-04-07 15:16:00,50.8,22.7,29.54,SE,137,0.0,2.0,33,0.00,,,0.00,390,WeatherCatV1.11B39,2013-04-07 19:16:00,
2013-04-07 15:19:00,50.9,22.1,29.53,SSE,156,0.0,3.0,32,0.00,,,0.00,476,WeatherCatV1.11B39,2013-04-07 19:19:00,
2013-04-07 15:21:00,51.0,22.9,29.53,SSE,157,0.0,2.0,33,0.00,,,0.00,617,WeatherCatV1.11B39,2013-04-07 19:21:00,
2013-04-07 15:26:00,51.2,24.5,29.52,SSW,196,1.0,2.0,35,0.00,,,0.00,603,WeatherCatV1.11B39,2013-04-07 19:26:00,
2013-04-07 15:31:00,51.5,23.4,29.52,SSE,167,0.0,2.0,33,0.00,,,0.00,585,WeatherCatV1.11B39,2013-04-07 19:31:00,
2013-04-07 15:34:00,51.6,22.7,29.52,SE,142,1.0,7.0,32,0.00,,,0.00,568,WeatherCatV1.11B39,2013-04-07 19:34:00,
2013-04-07 15:39:00,51.7,22.8,29.52,SSW,206,2.0,5.0,32,0.00,,,0.00,575,WeatherCatV1.11B39,2013-04-07 19:39:00,
2013-04-07 15:41:00,51.8,24.3,29.52,ESE,117,1.0,3.0,34,0.00,,,0.00,513,WeatherCatV1.11B39,2013-04-07 19:41:00,
2013-04-07 15:46:00,51.9,24.4,29.51,South,186,0.0,3.0,34,0.00,,,0.00,403,WeatherCatV1.11B39,2013-04-07 19:46:00,
2013-04-07 15:51:00,52.0,24.5,29.50,SSE,157,1.0,3.0,34,0.00,,,0.00,401,WeatherCatV1.11B39,2013-04-07 19:51:00,
2013-04-07 15:54:00,52.0,23.8,29.50,SSE,147,0.0,2.0,33,0.00,,,0.00,309,WeatherCatV1.11B39,2013-04-07 19:54:00,
2013-04-07 15:56:00,52.0,23.8,29.50,SSE,163,1.0,2.0,33,0.00,,,0.00,246,WeatherCatV1.11B39,2013-04-07 19:56:00,
2013-04-07 16:01:00,51.9,24.4,29.49,SSW,206,0.0,3.0,34,0.00,,,0.00,144,WeatherCatV1.11B39,2013-04-07 20:01:00,
2013-04-07 16:06:00,51.7,23.5,29.49,South,170,2.0,4.0,33,0.00,,,0.00,155,WeatherCatV1.11B39,2013-04-07 20:06:00,
2013-04-07 16:08:00,51.7,23.5,29.49,South,178,1.0,4.0,33,0.00,,,0.00,160,WeatherCatV1.11B39,2013-04-07 20:08:00,
2013-04-07 16:13:00,51.6,24.2,29.48,SE,141,1.0,2.0,34,0.00,,,0.00,151,WeatherCatV1.11B39,2013-04-07 20:13:00,
2013-04-07 16:16:00,51.6,23.4,29.48,SSE,163,0.0,1.0,33,0.00,,,0.00,142,WeatherCatV1.11B39,2013-04-07 20:16:00,
2013-04-07 16:21:00,51.6,25.5,29.48,SSE,165,0.0,1.0,36,0.00,,,0.00,127,WeatherCatV1.11B39,2013-04-07 20:21:00,
2013-04-07 16:26:00,51.5,24.1,29.47,SW,219,3.0,3.0,34,0.00,,,0.00,120,WeatherCatV1.11B39,2013-04-07 20:26:00,
2013-04-07 16:31:00,51.3,23.2,29.47,South,178,3.0,3.0,33,0.00,,,0.00,139,WeatherCatV1.11B39,2013-04-07 20:31:00,
2013-04-07 16:36:00,51.2,23.8,29.47,SSW,194,0.0,1.0,34,0.00,,,0.00,132,WeatherCatV1.11B39,2013-04-07 20:36:00,
2013-04-07 16:41:00,51.1,26.4,29.48,South,169,0.0,0.0,38,0.00,,,0.00,109,WeatherCatV1.11B39,2013-04-07 20:41:00,
2013-04-07 16:47:00,51.0,26.9,29.48,South,169,0.0,1.0,39,0.00,,,0.00,116,WeatherCatV1.11B39,2013-04-07 20:47:00,
2013-04-07 16:49:00,50.9,27.4,29.48,South,169,0.0,0.0,40,0.00,,,0.00,116,WeatherCatV1.11B39,2013-04-07 20:49:00,
2013-04-07 16:52:00,50.9,28.0,29.48,South,169,0.0,0.0,41,0.00,,,0.00,114,WeatherCatV1.11B39,2013-04-07 20:52:00,
2013-04-07 16:54:00,50.8,28.5,29.48,South,169,0.0,0.0,42,0.00,,,0.00,113,WeatherCatV1.11B39,2013-04-07 20:54:00,
2013-04-07 16:59:00,50.6,26.6,29.48,South,169,0.0,0.0,39,0.00,,,0.00,139,WeatherCatV1.11B39,2013-04-07 20:59:00,
2013-04-07 17:04:00,50.5,28.3,29.48,South,169,0.0,1.0,42,0.00,,,0.00,181,WeatherCatV1.11B39,2013-04-07 21:04:00,
2013-04-07 17:09:00,50.4,28.2,29.48,South,169,0.0,0.0,42,0.00,,,0.00,100,WeatherCatV1.11B39,2013-04-07 21:09:00,
2013-04-07 17:14:00,50.2,28.6,29.48,South,169,0.0,0.0,43,0.00,,,0.00,88,WeatherCatV1.11B39,2013-04-07 21:14:00,
2013-04-07 17:19:00,50.1,29.6,29.48,South,169,0.0,0.0,45,0.00,,,0.00,97,WeatherCatV1.11B39,2013-04-07 21:19:00,
2013-04-07 17:21:00,50.0,29.0,29.48,SSE,147,0.0,0.0,44,0.00,,,0.00,88,WeatherCatV1.11B39,2013-04-07 21:21:00,
2013-04-07 17:24:00,49.9,28.9,29.48,SE,126,0.0,1.0,44,0.00,,,0.00,90,WeatherCatV1.11B39,2013-04-07 21:24:00,
2013-04-07 17:28:00,49.7,29.8,29.48,SE,126,0.0,0.0,46,0.00,,,0.00,77,WeatherCatV1.11B39,2013-04-07 21:28:00,
2013-04-07 17:34:00,49.4,30.0,29.49,ESE,121,0.0,1.0,47,0.00,,,0.00,69,WeatherCatV1.11B39,2013-04-07 21:34:00,
2013-04-07 17:36:00,49.3,29.9,29.49,ESE,121,0.0,0.0,47,0.00,,,0.00,62,WeatherCatV1.11B39,2013-04-07 21:36:00,
2013-04-07 17:41:00,49.1,30.3,29.49,ESE,121,0.0,0.0,48,0.00,,,0.00,46,WeatherCatV1.11B39,2013-04-07 21:41:00,
2013-04-07 17:46:00,48.8,31.0,29.50,ESE,121,0.0,0.0,50,0.00,,,0.00,28,WeatherCatV1.11B39,2013-04-07 21:46:00,
2013-04-07 17:51:00,48.5,31.2,29.49,ESE,121,0.0,0.0,51,0.00,,,0.00,30,WeatherCatV1.11B39,2013-04-07 21:51:00,
2013-04-07 17:54:00,48.4,30.6,29.49,ESE,121,0.0,0.0,50,0.00,,,0.00,26,WeatherCatV1.11B39,2013-04-07 21:54:00,
2013-04-07 17:59:00,48.1,31.3,29.50,ESE,121,0.0,0.0,52,0.00,,,0.00,11,WeatherCatV1.11B39,2013-04-07 21:59:00,
2013-04-07 18:01:00,48.0,31.7,29.50,ESE,121,0.0,0.0,53,0.00,,,0.00,9,WeatherCatV1.11B39,2013-04-07 22:01:00,
2013-04-07 18:03:00,47.8,31.5,29.50,ESE,121,0.0,0.0,53,0.00,,,0.00,7,WeatherCatV1.11B39,2013-04-07 22:03:00,
2013-04-07 18:08:00,47.5,31.2,29.50,ESE,121,0.0,0.0,53,0.00,,,0.00,7,WeatherCatV1.11B39,2013-04-07 22:08:00,
2013-04-07 18:09:00,47.5,31.2,29.50,ESE,121,0.0,0.0,53,0.00,,,0.00,7,WeatherCatV1.11B39,2013-04-07 22:09:00,
2013-04-07 18:13:00,47.2,31.4,29.48,ESE,121,0.0,1.0,54,0.00,,,0.00,0,WeatherCatV1.11B39,2013-04-07 22:13:00,
2013-04-07 18:14:00,47.2,31.4,29.49,ESE,121,0.0,1.0,54,0.00,,,0.00,0,WeatherCatV1.11B39,2013-04-07 22:14:00,
2013-04-07 18:18:00,46.8,30.6,29.49,ESE,121,0.0,0.0,53,0.00,,,0.00,5,WeatherCatV1.11B39,2013-04-07 22:18:00,
2013-04-07 18:21:00,46.6,30.4,29.49,ESE,121,0.0,0.0,53,0.00,,,0.00,5,WeatherCatV1.11B39,2013-04-07 22:21:00,
2013-04-07 18:24:00,46.5,30.3,29.49,ESE,121,0.0,0.0,53,0.00,,,0.00,5,WeatherCatV1.11B39,2013-04-07 22:24:00,
2013-04-07 18:28:00,46.2,30.5,29.48,ESE,121,1.0,1.0,54,0.00,,,0.00,7,WeatherCatV1.11B39,2013-04-07 22:28:00,
2013-04-07 18:33:00,45.8,30.6,29.49,ESE,121,0.0,0.0,55,0.00,,,0.00,14,WeatherCatV1.11B39,2013-04-07 22:33:00,
2013-04-07 18:36:00,45.6,30.4,29.48,ESE,121,0.0,0.0,55,0.00,,,0.00,21,WeatherCatV1.11B39,2013-04-07 22:36:00,
2013-04-07 18:39:00,45.5,30.3,29.48,ESE,121,0.0,0.0,55,0.00,,,0.00,25,WeatherCatV1.11B39,2013-04-07 22:39:00,
2013-04-07 18:44:00,45.2,30.4,29.48,ESE,121,0.0,0.0,56,0.00,,,0.00,28,WeatherCatV1.11B39,2013-04-07 22:44:00,
2013-04-07 18:49:00,44.9,30.2,29.48,ESE,121,0.0,0.0,56,0.00,,,0.00,28,WeatherCatV1.11B39,2013-04-07 22:49:00,
2013-04-07 18:54:00,44.7,30.4,29.48,South,182,0.0,1.0,57,0.00,,,0.00,25,WeatherCatV1.11B39,2013-04-07 22:54:00,
2013-04-07 18:58:00,44.4,31.0,29.47,South,182,0.0,0.0,59,0.00,,,0.00,21,WeatherCatV1.11B39,2013-04-07 22:58:00,
2013-04-07 19:04:00,44.1,30.7,29.47,South,182,0.0,0.0,59,0.00,,,0.00,21,WeatherCatV1.11B39,2013-04-07 23:04:00,
2013-04-07 19:06:00,44.0,30.6,29.47,South,182,0.0,0.0,59,0.00,,,0.00,18,WeatherCatV1.11B39,2013-04-07 23:06:00,
2013-04-07 19:11:00,43.8,30.8,29.47,South,182,0.0,2.0,60,0.00,,,0.00,12,WeatherCatV1.11B39,2013-04-07 23:11:00,
2013-04-07 19:14:00,43.6,30.6,29.47,South,182,0.0,1.0,60,0.00,,,0.00,9,WeatherCatV1.11B39,2013-04-07 23:14:00,
2013-04-07 19:16:00,43.5,30.5,29.47,SSW,198,0.0,2.0,60,0.00,,,0.00,7,WeatherCatV1.11B39,2013-04-07 23:16:00,
2013-04-07 19:19:00,43.3,30.8,29.47,SSW,205,0.0,1.0,61,0.00,,,0.00,5,WeatherCatV1.11B39,2013-04-07 23:19:00,
2013-04-07 19:21:00,43.1,30.6,29.47,SSW,205,0.0,0.0,61,0.00,,,0.00,0,WeatherCatV1.11B39,2013-04-07 23:21:00,
2013-04-07 19:26:00,42.7,30.6,29.47,SSW,208,1.0,2.0,62,0.00,,,0.00,0,WeatherCatV1.11B39,2013-04-07 23:26:00,
2013-04-07 19:31:00,42.2,30.5,29.46,SW,225,1.0,2.0,63,0.00,,,0.00,0,WeatherCatV1.11B39,2013-04-07 23:31:00,
2013-04-07 19:36:00,41.8,30.1,29.46,SW,225,0.0,1.0,63,0.00,,,0.00,0,WeatherCatV1.11B39,2013-04-07 23:36:00,
2013-04-07 19:41:00,41.6,30.0,29.47,SW,225,0.0,0.0,63,0.00,,,0.00,0,WeatherCatV1.11B39,2013-04-07 23:41:00,
2013-04-07 19:46:00,41.3,30.1,29.47,SW,225,0.0,0.0,64,0.00,,,0.00,0,WeatherCatV1.11B39,2013-04-07 23:46:00,
2013-04-07 19:51:00,41.0,29.8,29.47,SW,225,0.0,0.0,64,0.00,,,0.00,0,WeatherCatV1.11B39,2013-04-07 23:51:00,
2013-04-07 19:56:00,40.7,29.5,29.47,SW,225,0.0,0.0,64,0.00,,,0.00,0,WeatherCatV1.11B39,2013-04-07 23:56:00,
2013-04-07 20:01:00,40.4,30.3,29.47,SW,225,0.0,0.0,67,0.00,,,0.00,0,WeatherCatV1.11B39,2013-04-08 00:01:00,
2013-04-07 20:04:00,40.2,30.1,29.47,SW,225,0.0,0.0,67,0.00,,,0.00,0,WeatherCatV1.11B39,2013-04-08 00:04:00,
2013-04-07 20:08:00,39.8,29.8,29.47,SW,225,0.0,0.0,67,0.00,,,0.00,0,WeatherCatV1.11B39,2013-04-08 00:08:00,
2013-04-07 20:11:00,39.6,29.9,29.47,SW,225,0.0,0.0,68,0.00,,,0.00,0,WeatherCatV1.11B39,2013-04-08 00:11:00,
2013-04-07 20:14:00,39.4,29.7,29.47,SW,225,0.0,0.0,68,0.00,,,0.00,0,WeatherCatV1.11B39,2013-04-08 00:14:00,
2013-04-07 20:16:00,39.2,29.5,29.47,SW,225,0.0,0.0,68,0.00,,,0.00,0,WeatherCatV1.11B39,2013-04-08 00:16:00,
2013-04-07 20:21:00,38.9,29.3,29.47,SW,225,0.0,0.0,68,0.00,,,0.00,0,WeatherCatV1.11B39,2013-04-08 00:21:00,
2013-04-07 20:24:00,38.7,29.1,29.47,SW,225,0.0,0.0,68,0.00,,,0.00,0,WeatherCatV1.11B39,2013-04-08 00:24:00,
2013-04-07 20:29:00,38.4,29.5,29.47,SW,225,0.0,0.0,70,0.00,,,0.00,0,WeatherCatV1.11B39,2013-04-08 00:29:00,
2013-04-07 20:31:00,38.3,29.7,29.47,SW,225,0.0,0.0,71,0.00,,,0.00,0,WeatherCatV1.11B39,2013-04-08 00:31:00,
2013-04-07 20:36:00,37.9,29.4,29.48,SW,225,0.0,0.0,71,0.00,,,0.00,0,WeatherCatV1.11B39,2013-04-08 00:36:00,
2013-04-07 20:41:00,37.6,29.1,29.47,SW,225,0.0,0.0,71,0.00,,,0.00,0,WeatherCatV1.11B39,2013-04-08 00:41:00,
2013-04-07 20:46:00,37.2,28.7,29.47,SW,225,0.0,0.0,71,0.00,,,0.00,0,WeatherCatV1.11B39,2013-04-08 00:46:00,
2013-04-07 20:51:00,36.9,28.4,29.47,SW,225,0.0,0.0,71,0.00,,,0.00,0,WeatherCatV1.11B39,2013-04-08 00:51:00,
2013-04-07 20:56:00,36.7,28.5,29.47,SW,225,0.0,0.0,72,0.00,,,0.00,0,WeatherCatV1.11B39,2013-04-08 00:56:00,
2013-04-07 21:01:00,36.4,28.6,29.47,SW,225,1.0,1.0,73,0.00,,,0.00,0,WeatherCatV1.11B39,2013-04-08 01:01:00,
2013-04-07 21:03:00,36.3,28.5,29.47,SW,225,0.0,2.0,73,0.00,,,0.00,0,WeatherCatV1.11B39,2013-04-08 01:03:00,
2013-04-07 21:06:00,36.2,28.4,29.47,SW,225,0.0,0.0,73,0.00,,,0.00,0,WeatherCatV1.11B39,2013-04-08 01:06:00,
2013-04-07 21:09:00,36.1,28.3,29.47,SW,225,0.0,1.0,73,0.00,,,0.00,0,WeatherCatV1.11B39,2013-04-08 01:09:00,
2013-04-07 21:11:00,36.0,28.5,29.47,SW,225,0.0,1.0,74,0.00,,,0.00,0,WeatherCatV1.11B39,2013-04-08 01:11:00,
2013-04-07 21:14:00,35.9,28.4,29.47,SW,225,0.0,0.0,74,0.00,,,0.00,0,WeatherCatV1.11B39,2013-04-08 01:14:00,
2013-04-07 21:19:00,35.7,28.6,29.47,SW,235,1.0,1.0,75,0.00,,,0.00,0,WeatherCatV1.11B39,2013-04-08 01:19:00,
2013-04-07 21:21:00,35.6,28.8,29.47,SW,235,0.0,1.0,76,0.00,,,0.00,0,WeatherCatV1.11B39,2013-04-08 01:21:00,
2013-04-07 21:24:00,35.6,28.8,29.47,SW,235,0.0,1.0,76,0.00,,,0.00,0,WeatherCatV1.11B39,2013-04-08 01:24:00,
2013-04-07 21:26:00,35.5,28.7,29.46,SW,235,0.0,0.0,76,0.00,,,0.00,0,WeatherCatV1.11B39,2013-04-08 01:26:00,
2013-04-07 21:31:00,35.4,28.9,29.46,SW,235,0.0,0.0,77,0.00,,,0.00,0,WeatherCatV1.11B39,2013-04-08 01:31:00,
2013-04-07 21:34:00,35.3,28.8,29.46,SW,235,0.0,0.0,77,0.00,,,0.00,0,WeatherCatV1.11B39,2013-04-08 01:34:00,
2013-04-07 21:36:00,35.3,28.8,29.46,SW,235,0.0,1.0,77,0.00,,,0.00,0,WeatherCatV1.11B39,2013-04-08 01:36:00,
2013-04-07 21:39:00,35.3,29.1,29.46,SW,235,0.0,2.0,78,0.00,,,0.00,0,WeatherCatV1.11B39,2013-04-08 01:39:00,
2013-04-07 21:41:00,35.2,29.0,29.46,SW,235,0.0,1.0,78,0.00,,,0.00,0,WeatherCatV1.11B39,2013-04-08 01:41:00,
2013-04-07 21:46:00,35.1,28.9,29.46,SW,235,0.0,1.0,78,0.00,,,0.00,0,WeatherCatV1.11B39,2013-04-08 01:46:00,
2013-04-07 21:49:00,35.1,29.3,29.47,SW,235,0.0,0.0,79,0.00,,,0.00,0,WeatherCatV1.11B39,2013-04-08 01:49:00,
2013-04-07 21:54:00,35.1,29.6,29.47,SW,235,0.0,2.0,80,0.00,,,0.00,0,WeatherCatV1.11B39,2013-04-08 01:54:00,
2013-04-07 21:56:00,35.1,29.3,29.46,SW,235,0.0,0.0,79,0.00,,,0.00,0,WeatherCatV1.11B39,2013-04-08 01:56:00,
2013-04-07 22:01:00,35.1,29.6,29.46,SW,235,1.0,1.0,80,0.00,,,0.00,0,WeatherCatV1.11B39,2013-04-08 02:01:00,
2013-04-07 22:06:00,35.1,29.9,29.46,SW,235,0.0,0.0,81,0.00,,,0.00,0,WeatherCatV1.11B39,2013-04-08 02:06:00,
2013-04-07 22:11:00,35.4,30.2,29.45,South,174,0.0,1.0,81,0.00,,,0.00,0,WeatherCatV1.11B39,2013-04-08 02:11:00,
2013-04-07 22:16:00,35.6,30.4,29.45,South,182,0.0,1.0,81,0.00,,,0.00,0,WeatherCatV1.11B39,2013-04-08 02:16:00,
2013-04-07 22:21:00,36.1,30.5,29.46,SSE,167,0.0,3.0,80,0.00,,,0.00,0,WeatherCatV1.11B39,2013-04-08 02:21:00,
2013-04-07 22:24:00,36.4,30.8,29.45,SSE,165,1.0,1.0,80,0.00,,,0.00,0,WeatherCatV1.11B39,2013-04-08 02:24:00,
2013-04-07 22:29:00,36.9,31.0,29.45,South,178,0.0,3.0,79,0.00,,,0.00,0,WeatherCatV1.11B39,2013-04-08 02:29:00,
2013-04-07 22:34:00,37.4,31.2,29.45,South,181,2.0,2.0,78,0.00,,,0.00,0,WeatherCatV1.11B39,2013-04-08 02:34:00,
2013-04-07 22:36:00,37.9,31.3,29.46,SSE,163,1.0,2.0,77,0.00,,,0.00,0,WeatherCatV1.11B39,2013-04-08 02:36:00,
2013-04-07 22:41:00,39.1,31.9,29.45,South,183,2.0,3.0,75,0.00,,,0.00,0,WeatherCatV1.11B39,2013-04-08 02:41:00,
2013-04-07 22:42:00,39.2,32.0,29.45,SSW,203,1.0,2.0,75,0.00,,,0.00,0,WeatherCatV1.11B39,2013-04-08 02:42:00,
2013-04-07 22:47:00,40.2,31.9,29.45,SSE,150,0.0,9.0,72,0.00,,,0.00,0,WeatherCatV1.11B39,2013-04-08 02:47:00,
2013-04-07 22:52:00,41.0,32.3,29.45,SSE,148,2.0,4.0,71,0.00,,,0.00,0,WeatherCatV1.11B39,2013-04-08 02:52:00,
2013-04-07 22:56:00,41.6,32.6,29.45,South,169,0.0,1.0,70,0.00,,,0.00,0,WeatherCatV1.11B39,2013-04-08 02:56:00,
2013-04-07 22:57:00,41.7,32.6,29.45,South,169,0.0,1.0,70,0.00,,,0.00,0,WeatherCatV1.11B39,2013-04-08 02:57:00,
2013-04-07 23:02:00,42.2,32.4,29.44,SSE,159,0.0,4.0,68,0.00,,,0.00,0,WeatherCatV1.11B39,2013-04-08 03:02:00,
2013-04-07 23:07:00,42.6,32.4,29.44,South,180,0.0,3.0,67,0.00,,,0.00,0,WeatherCatV1.11B39,2013-04-08 03:07:00,
2013-04-07 23:09:00,42.7,32.5,29.44,South,184,0.0,1.0,67,0.00,,,0.00,0,WeatherCatV1.11B39,2013-04-08 03:09:00,
2013-04-07 23:14:00,43.1,32.5,29.45,SSE,155,0.0,3.0,66,0.00,,,0.00,0,WeatherCatV1.11B39,2013-04-08 03:14:00,
2013-04-07 23:19:00,43.3,33.1,29.44,South,175,0.0,1.0,67,0.00,,,0.00,0,WeatherCatV1.11B39,2013-04-08 03:19:00,
2013-04-07 23:24:00,43.5,32.9,29.44,South,177,0.0,1.0,66,0.00,,,0.00,0,WeatherCatV1.11B39,2013-04-08 03:24:00,
2013-04-07 23:26:00,43.6,33.0,29.44,SSE,160,0.0,1.0,66,0.00,,,0.00,0,WeatherCatV1.11B39,2013-04-08 03:26:00,
2013-04-07 23:29:00,43.6,33.0,29.44,South,172,2.0,2.0,66,0.00,,,0.00,0,WeatherCatV1.11B39,2013-04-08 03:29:00,
2013-04-07 23:31:00,43.6,32.6,29.44,South,172,0.0,0.0,65,0.00,,,0.00,0,WeatherCatV1.11B39,2013-04-08 03:31:00,
2013-04-07 23:34:00,43.6,32.6,29.44,South,169,0.0,2.0,65,0.00,,,0.00,0,WeatherCatV1.11B39,2013-04-08 03:34:00,
2013-04-07 23:39:00,43.7,32.7,29.44,South,171,1.0,2.0,65,0.00,,,0.00,0,WeatherCatV1.11B39,2013-04-08 03:39:00,
2013-04-07 23:41:00,43.8,32.8,29.44,South,169,0.0,2.0,65,0.00,,,0.00,0,WeatherCatV1.11B39,2013-04-08 03:41:00,
2013-04-07 23:46:00,43.9,33.3,29.44,South,187,0.0,3.0,66,0.00,,,0.00,0,WeatherCatV1.11B39,2013-04-08 03:46:00,
2013-04-07 23:49:00,43.9,32.9,29.44,South,174,0.0,4.0,65,0.00,,,0.00,0,WeatherCatV1.11B39,2013-04-08 03:49:00,
2013-04-07 23:51:00,44.0,33.0,29.44,South,171,0.0,2.0,65,0.00,,,0.00,0,WeatherCatV1.11B39,2013-04-08 03:51:00,
2013-04-07 23:56:00,44.0,33.0,29.44,South,179,0.0,1.0,65,0.00,,,0.00,0,WeatherCatV1.11B39,2013-04-08 03:56:00,